Retour au catalogue

XINGSHIDAI 8

ActifScienceSSO
NORAD 44889·PAYLOAD·🇨🇳 China
Ce nom de satellite n'a pas encore été confirmé par des sources officielles.

Lancé Dec 20, 2019 depuis Taiyuan Satellite Launch Center

Loading…

Prochains Passages (prochaines 24 heures)

TLE

FraisSource: Space-Track

Époque: Sep 14, 2026, 11:44 UTC

1 44889U 19093L   26257.48916529  .00001992  00000-0  18760-3 0  9997
2 44889  97.7494 334.6906 0013014 111.3987 248.8624 14.94913138365141

Suivez XINGSHIDAI 8 en temps réel avec AllMySat

Download on the App Store